CDT,Max TemperatureF,Mean TemperatureF,Min TemperatureF,Max Dew PointF,MeanDew PointF,Min DewpointF,Max Humidity, Mean Humidity, Min Humidity, Max Sea Level PressureIn, Mean Sea Level PressureIn, Min Sea Level PressureIn, Max VisibilityMiles, Mean VisibilityMiles, Min VisibilityMiles, Max Wind SpeedMPH, Mean Wind SpeedMPH, Max Gust SpeedMPH,PrecipitationIn, CloudCover, Events, WindDirDegrees
2013-8-1,81,70,59,64,61,57,97,73,43,30.08,30.03,29.96,10,9,1,9,3,,0.05,1,,266
2013-8-2,84,75,66,70,64,61,93,72,49,29.99,29.93,29.89,10,10,3,13,7,17,0.03,5,Rain-Thunderstorm,227
2013-8-3,79,70,60,65,59,54,95,70,41,30.16,30.07,29.99,10,10,10,12,4,,0.03,1,,353
2013-8-4,79,66,54,59,55,50,95,67,37,30.21,30.16,30.11,10,10,10,6,1,,0.00,1,,90
2013-8-5,75,66,58,67,61,54,95,82,70,30.11,29.98,29.88,10,10,7,12,4,16,0.00,4,,150
2013-8-6,86,75,65,73,69,64,96,83,61,29.92,29.87,29.82,10,7,0,9,5,,0.00,5,Fog-Rain,179
2013-8-7,85,76,65,72,68,61,94,78,52,29.97,29.87,29.81,10,10,10,12,5,,0.00,2,Rain-Thunderstorm,298
2013-8-8,80,70,61,65,63,59,95,78,57,30.02,29.98,29.95,10,10,10,10,5,,0.00,2,,32
2013-8-9,82,70,58,67,62,57,97,76,50,30.09,30.04,30.00,10,9,0,7,1,,0.00,2,Fog-Rain,263
2013-8-10,80,68,56,62,57,51,96,70,37,30.18,30.14,30.10,10,10,7,13,4,17,0.00,0,,333
2013-8-11,82,68,54,66,59,54,97,72,46,30.16,30.12,30.06,10,10,7,9,2,,0.00,0,,196
2013-8-12,80,71,60,70,63,58,92,76,57,30.05,29.98,29.92,10,10,2,12,5,17,0.12,2,Rain-Thunderstorm,258
2013-8-13,74,62,52,58,53,47,96,73,40,30.17,30.09,29.98,10,10,10,15,4,18,0.00,0,,21
2013-8-14,76,61,46,55,49,43,96,70,31,30.24,30.19,30.15,10,10,10,13,1,,0.00,2,,4
2013-8-15,75,62,52,58,53,48,95,72,40,30.19,30.16,30.11,10,10,10,6,1,,0.00,1,,163
2013-8-16,79,64,51,59,53,48,96,70,35,30.19,30.17,30.14,10,10,10,9,2,,0.00,2,,33
2013-8-17,80,65,51,59,54,50,97,70,39,30.23,30.19,30.16,10,10,4,9,2,,0.00,1,,101
2013-8-18,81,66,52,62,56,50,95,71,40,30.22,30.16,30.11,10,10,5,6,1,,0.00,0,,134
2013-8-19,83,68,55,65,61,54,96,74,48,30.14,30.10,30.05,10,9,3,9,2,,0.00,1,,183
2013-8-20,86,74,63,66,63,60,92,71,45,30.12,30.07,30.04,10,10,7,12,5,17,0.00,1,,168
2013-8-21,88,76,64,70,67,62,93,74,52,30.10,30.06,30.00,10,9,5,13,6,20,0.10,1,,183
2013-8-22,81,74,68,71,68,66,94,84,72,30.13,30.08,30.03,10,10,10,20,5,23,0.00,5,Rain-Thunderstorm,129
2013-8-23,83,70,58,69,65,58,100,79,51,30.16,30.13,30.10,10,8,0,8,3,,0.00,2,Fog,82
2013-8-24,86,74,61,70,66,58,90,76,57,30.24,30.19,30.15,10,10,10,8,5,,0.00,0,,131
2013-8-25,88,77,66,71,68,64,94,76,51,30.26,30.21,30.16,10,10,7,13,6,,0.00,0,,173
2013-8-26,92,78,63,73,69,62,99,75,48,30.18,30.12,30.03,10,10,7,12,6,,0.00,0,,196
2013-8-27,93,81,69,73,70,65,99,72,46,30.04,29.98,29.91,10,10,10,16,8,21,0.00,0,,211
2013-8-28,93,82,71,78,71,65,91,71,53,30.02,29.97,29.94,10,10,10,12,7,17,0.00,0,,261
2013-8-29,89,79,70,76,73,69,100,84,65,30.08,30.03,29.97,10,9,4,8,3,,0.00,2,,99
2013-8-30,97,84,71,76,73,65,100,76,43,29.98,29.89,29.81,10,8,2,13,3,22,0.00,1,,181
2013-8-31,88,77,67,74,69,64,100,77,62,29.83,29.80,29.77,10,10,7,10,5,,0.00,0,,33